TimeCDT,TemperatureF,Dew PointF,Humidity,Sea Level PressureIn,VisibilityMPH,Wind Direction,Wind SpeedMPH,Gust SpeedMPH,PrecipitationIn,Events,Conditions,WindDirDegrees,DateUTC
12:53 AM,64.0,54.0,70,30.12,10.0,South,4.6,-,N/A,,Clear,180,2012-10-04 05:53:00
1:53 AM,62.1,54.0,75,30.12,10.0,Calm,Calm,-,N/A,,Clear,0,2012-10-04 06:53:00
2:53 AM,61.0,53.1,75,30.13,10.0,Calm,Calm,-,N/A,,Clear,0,2012-10-04 07:53:00
3:53 AM,60.1,54.0,80,30.14,10.0,South,4.6,-,N/A,,Clear,190,2012-10-04 08:53:00
4:53 AM,60.1,54.0,80,30.16,10.0,SSW,4.6,-,N/A,,Clear,200,2012-10-04 09:53:00
5:53 AM,60.1,54.0,80,30.18,10.0,South,6.9,-,N/A,,Clear,190,2012-10-04 10:53:00
6:53 AM,57.9,54.0,87,30.18,8.0,Calm,Calm,-,N/A,,Clear,0,2012-10-04 11:53:00
7:53 AM,60.1,55.0,83,30.19,8.0,Variable,3.5,-,N/A,,Clear,0,2012-10-04 12:53:00
8:53 AM,64.0,55.9,75,30.21,10.0,Variable,5.8,-,N/A,,Clear,0,2012-10-04 13:53:00
9:53 AM,69.1,57.9,68,30.23,10.0,Variable,4.6,-,N/A,,Clear,0,2012-10-04 14:53:00
10:53 AM,73.0,57.9,59,30.22,10.0,SW,9.2,-,N/A,,Clear,220,2012-10-04 15:53:00
11:53 AM,75.0,57.9,55,30.22,10.0,SW,12.7,16.1,N/A,,Clear,220,2012-10-04 16:53:00
12:53 PM,78.1,57.0,48,30.19,10.0,WSW,12.7,-,N/A,,Clear,240,2012-10-04 17:53:00
1:53 PM,79.0,57.9,48,30.16,10.0,SSW,8.1,-,N/A,,Partly Cloudy,210,2012-10-04 18:53:00
2:53 PM,79.0,55.9,45,30.14,10.0,WSW,6.9,-,N/A,,Clear,240,2012-10-04 19:53:00
3:53 PM,79.0,55.0,44,30.14,10.0,SW,9.2,-,N/A,,Clear,220,2012-10-04 20:53:00
4:53 PM,79.0,55.9,45,30.13,10.0,SW,5.8,-,N/A,,Clear,230,2012-10-04 21:53:00
5:53 PM,75.9,55.9,50,30.13,10.0,SW,5.8,-,N/A,,Clear,230,2012-10-04 22:53:00
6:53 PM,72.0,55.0,55,30.13,10.0,South,4.6,-,N/A,,Clear,190,2012-10-04 23:53:00
7:53 PM,70.0,55.9,61,30.14,10.0,South,3.5,-,N/A,,Clear,180,2012-10-05 00:53:00
8:53 PM,66.0,57.0,73,30.14,10.0,South,3.5,-,N/A,,Clear,180,2012-10-05 01:53:00
9:53 PM,62.1,57.0,84,30.15,10.0,Calm,Calm,-,N/A,,Clear,0,2012-10-05 02:53:00
10:53 PM,68.0,57.0,68,30.14,10.0,South,5.8,-,N/A,,Clear,180,2012-10-05 03:53:00
11:53 PM,66.9,57.0,70,30.14,10.0,South,5.8,-,N/A,,Clear,180,2012-10-05 04:53:00